Meath Environmental Platform

Observations for Trim Market St

Time AQI Temp °C Hum % Pres Pa CO μg/m³ H₂S μg/m³ NO μg/m³ NO₂ μg/m³ O₃ μg/m³ SO₂ μg/m³ PM1 μg/m³ PM2.5 μg/m³ PM10 μg/m³
Friday 21 August 2026
19:52 3 19 57 56,768 0.07 0 3.36 24.43 48.99 0 0.71 2.66 3.3
19:51 3 19.1 57 56,818 0 0 3.08 11.51 61.24 0 0 1.65 1.89
19:50 3 19.1 57 56,888 0.05 0 3.02 16.83 55.87 0 0 2.66 3.3
19:49 3 19.1 57 56,969 0.04 0 1.3 15.74 55.49 0 0 1.64 1.9
19:46 3 19.2 57 57,084 0 0 1.24 13.38 59.7 0 0 1.64 3.31
19:40 3 19.3 57 57,188 0.03 0 1.25 20.62 60.12 0 0.71 3.16 4.71
19:39 3 19.3 57 57,187 0.05 0 1.3 21.01 59.88 0 0.71 2.66 3.3
19:36 3 19.4 57 57,122 0.18 0 1.29 23.67 62.08 0 0 2.16 2.6
19:31 3 19.4 57 57,204 0.04 0 1.57 22.09 60.05 0 0 1.66 1.89
19:30 3 19.4 57 57,211 0.01 0 1.57 28.47 54.22 0 0 1.66 1.89
19:29 3 19.4 57 57,229 0.02 0 1.41 28.1 57.52 0 0 1.66 1.89
19:28 3 19.4 57 57,250 0.01 0 1.31 17.69 66.88 0 0 1.66 1.88
19:27 3 19.3 57 57,265 0.02 0 1.26 25.97 59.03 0 0.71 2.67 3.29
19:25 3 19.4 56 57,204 0.13 0 1.3 29.17 58.94 0 0 1.67 1.87
19:24 3 19.3 56 57,161 0.39 0 1.35 27.03 56.46 0 0 1.67 2.57
19:23 3 19.4 56 57,109 0.15 0 1.43 33.53 48.9 0 0 1.68 1.86
19:21 3 19.4 56 56,996 0.08 0 1.44 27.32 58.35 0 0 1.69 1.85
19:18 3 19.5 56 56,786 0 0 1.43 24.98 59.21 0 0 1.71 1.83
19:14 3 19.6 55 56,648 0.2 0 1.85 30.8 62.32 0 0 1.72 1.81
19:11 3 19.6 55 56,573 0.05 0 2.79 25.57 57.5 0 0 2.75 3.23